Location: Melque
(41.0517°N, 4.4694°W)
Time: 18:48:05
(UTC+00:00)

Spot 4 Rocket - Pass Details

Date: 11 December 2025
Orbit: 769 x 773 km, 98.8° (Epoch: 15 January)

Event Time Altitude Azimuth Distance (km) Brightness Sun altitude
Rises 18:15:34 0° 148° (SSE) 3,230 7.1 -15.7°
Reaches altitude 10° 18:17:55 10° 143° (SE) 2,308 6.3 -16.1°
Maximum altitude 18:22:47 47° 70° (ENE) 1,014 4.2 -17.0°
Drops below altitude 10° 18:27:40 10° 358° (N) 2,325 6.4 -17.9°
Sets 18:30:03 0° 353° (N) 3,257 7.2 -18.3°
